CAPE
546 280 180 37 22 9 12 2 10 7 16 23 22 15 89 79 118 27 6 1 11 28 16 84 168 184 181 74 52 10 0 0
423 223 134 45 12 9 6 13 12 18 7 15 20 18 50 58 89 19 0 0 19 50 42 102 176 74 35 40 61 129 19 24
366 235 134 20 7 9 2 5 12 10 7 5 10 2 13 29 11 1 0 0 6 47 86 129 144 82 84 115 160 61 34 8
411 198 133 129 2 6 5 5 17 7 1 2 2 0 1 1 2 3 4 0 4 28 66 147 161 161 149 174 177 126 54 7
445 298 63 157 40 11 16 8 3 3 1 0 2 0 0 3 2 5 7 8 32 67 88 172 208 193 176 157 128 156 148 35
374 366 87 88 138 10 11 11 9 13 1 5 0 3 3 3 5 8 16 57 65 85 121 190 252 180 223 231 175 151 125 139
309 415 107 71 67 2 0 6 2 10 4 4 2 0 3 11 13 6 9 23 48 82 94 179 197 217 218 209 172 117 163 223
376 425 204 84 62 6 6 3 5 12 9 3 0 0 0 0 15 34 7 18 41 27 35 67 114 157 169 203 166 256 227 232
421 436 303 180 163 115 7 5 5 7 8 18 12 17 3 0 15 49 19 38 116 22 2 6 26 66 76 174 320 174 190 303
437 448 408 224 233 146 68 31 8 10 7 8 11 13 22 2 0 12 73 70 84 102 80 55 61 72 104 66 107 126 193 264
410 464 504 329 225 171 93 66 50 10 9 4 6 12 18 17 33 43 66 77 47 55 71 60 66 68 86 115 133 178 192 251
366 501 536 425 277 180 137 92 52 37 21 10 15 12 15 15 31 49 41 51 64 63 68 82 93 108 132 173 174 163 163 217
252 512 551 508 306 194 170 117 68 70 45 20 9 12 11 12 15 24 47 50 55 40 35 20 37 52 90 117 170 136 199 253
278 508 603 590 422 267 182 88 66 29 44 68 40 25 12 8 12 44 38 36 32 28 32 52 44 67 96 174 207 229 245 289
263 439 589 619 575 419 272 114 46 28 17 28 42 39 31 48 49 28 145 69 32 26 66 69 124 26 26 69 80 183 215 181
132 327 489 622 622 569 434 322 130 50 50 46 55 49 77 41 40 41 19 20 16 22 16 13 24 34 25 50 36 20 29 14
47 114 331 434 518 585 505 431 364 219 157 120 85 77 73 77 85 86 41 24 17 18 14 25 53 0 0 1 0 0 1 2
23 60 131 294 546 499 537 491 494 354 265 209 159 134 112 103 92 71 93 81 45 1 1 0 1 1 0 0 0 2 2 1
36 22 45 85 410 588 548 538 508 457 356 263 228 189 152 129 69 0 1 1 1 2 1 2 1 2 1 1 0 1 1 1
CIN
-94 -129 -154 -204 -45 -0 -0 -1 -0 -0 -0 -0 -0 -2 -0 -3 -0 -3 -6 -31 -50 -50 -46 -18 -0 -0 -0 -5 -9 -42 -0 -0
-80 -163 -195 -252 -0 -0 -0 -0 -0 -0 -0 -0 -11 -18 -0 -0 -1 -7 -0 -0 -24 -31 -3 -1 -2 -6 -52 -51 -20 -0 -21 -17
-101 -188 -229 -182 -0 -0 -0 -0 -0 -0 -0 -0 -0 -0 -1 -0 -5 -1 -0 -0 -19 -39 -25 -5 -8 -29 -22 -10 -0 -14 -13 -67
-77 -184 -243 -259 -1 -0 -0 -0 -2 -0 -0 -0 -0 -0 -28 -0 -0 -0 -0 -1 -27 -20 -14 -6 -19 -16 -32 -29 -11 -13 -37 -118
-47 -141 -268 -261 -257 -46 -219 -0 -0 -0 -0 -0 -15 -0 -0 -0 -0 -0 -0 -1 -3 -6 -1 -8 -29 -7 -8 -29 -49 -31 -4 -59
-50 -114 -213 -304 -286 -0 -0 -0 -0 -0 -0 -0 -0 -0 -0 -0 -0 -0 -11 -1 -4 -3 -3 -7 -4 -2 -1 -6 -19 -30 -28 -12
-66 -105 -160 -307 -365 -1 -0 -0 -0 -0 -0 -0 -0 -0 -0 -5 -24 -0 -13 -6 -1 -9 -7 -4 -7 -5 -8 -23 -40 -35 -22 -0
-69 -94 -147 -258 -383 -64 -0 -0 -0 -0 -0 -0 -0 -0 -0 -0 -9 -1 -1 -0 -0 -32 -42 -53 -35 -12 -13 -30 -28 -7 -25 -23
-60 -79 -125 -168 -283 -316 -0 -0 -0 -0 -0 -0 -0 -0 -0 -0 -0 -10 -5 -1 -0 -23 -43 -57 -69 -40 -55 -14 -9 -18 -9 -3
-62 -64 -119 -154 -226 -298 -356 -390 -0 -0 -0 -0 -0 -0 -0 -0 -0 -17 -0 -1 -0 -12 -28 -38 -40 -51 -35 -67 -6 -2 -2 -2
-49 -60 -101 -137 -215 -271 -330 -334 -337 -377 -0 -0 -0 -0 -0 -0 -48 -43 -45 -16 -0 -0 -0 -0 -5 -10 -6 -2 -1 -0 -2 -0
-36 -44 -77 -106 -193 -250 -318 -308 -320 -333 -341 -0 -284 -0 -0 -0 -0 -1 -0 -0 -0 -0 -0 -0 -0 -1 -0 -0 -0 -0 -0 -0
-33 -37 -66 -103 -169 -223 -288 -312 -294 -280 -301 -327 -124 -0 -0 -0 -0 -0 -67 -21 -0 -0 -0 -0 -0 -2 -0 -0 -0 -0 -0 -0
-42 -46 -58 -94 -147 -201 -242 -335 -308 -305 -275 -242 -236 -222 -42 -0 -0 -107 -93 -87 -50 -10 -15 -22 -19 -8 -0 -0 -0 -0 -0 -0
-21 -40 -51 -81 -104 -166 -209 -336 -395 -338 -321 -290 -233 -201 -176 -130 -110 -111 -64 -70 -83 -82 -39 -30 -9 -27 -7 -1 -2 -0 -0 -0
-16 -22 -43 -62 -82 -123 -160 -218 -357 -353 -303 -281 -245 -207 -159 -146 -117 -95 -19 -92 -91 -77 -72 -16 -40 -21 -12 -3 -11 -25 -11 -21
-0 -13 -24 -51 -61 -92 -128 -163 -224 -276 -255 -236 -218 -209 -185 -167 -140 -116 -127 -60 -0 -1 -0 -20 -3 -0 -0 -0 -0 -0 -0 -0
-1 -3 -12 -30 -45 -89 -102 -146 -164 -222 -206 -188 -195 -199 -188 -158 -140 -134 -110 -99 -57 -0 -0 -0 -0 -0 -0 -0 -0 -0 -0 -0
-2 -9 -20 -37 -39 -76 -116 -132 -153 -204 -192 -170 -166 -164 -151 -143 -168 -7 -0 -0 -0 -0 -0 -0 -0 -0 -0 -0 -0 -0 -0 -0
Wind_Speed
12 9 7 9 7 9 9 4 5 5 4 5 7 10 11 13 11 12 16 12 11 6 6 4 10 10 9 9 9 9 9 8
10 9 9 10 10 10 9 8 8 5 2 1 2 12 13 12 14 18 17 14 13 8 13 11 7 10 9 7 8 10 8 8
11 11 11 11 12 11 10 8 8 5 3 1 2 2 11 10 10 16 16 16 16 8 7 11 11 8 8 9 9 8 7 6
14 13 12 13 13 13 12 11 10 7 6 5 3 6 9 9 10 10 13 15 13 11 9 10 10 8 8 10 9 10 8 7
15 15 14 14 13 13 12 12 11 8 8 6 6 2 5 5 8 8 12 14 15 14 15 11 8 7 10 9 8 8 7 8
15 15 15 14 14 12 11 12 11 13 7 10 7 7 5 7 7 11 10 10 13 14 12 10 11 12 9 9 9 9 6 6
15 15 14 14 12 12 12 13 12 12 10 8 8 11 10 9 10 8 8 8 8 10 11 11 10 9 9 8 8 11 9 8
15 17 16 16 17 15 13 14 13 13 12 12 11 11 12 10 10 10 12 10 9 10 11 9 8 8 8 8 8 10 11 9
17 18 16 16 18 18 15 15 15 15 14 14 15 14 10 8 9 9 7 10 11 13 13 11 11 10 9 9 8 9 9 10
17 19 17 16 17 17 18 18 16 16 15 12 14 14 13 12 13 11 10 10 10 14 13 14 14 12 11 10 10 12 11 11
16 18 18 16 16 16 15 16 18 18 17 14 14 15 15 15 14 15 14 12 13 14 14 15 15 14 15 14 12 12 12 10
15 17 18 16 16 16 16 15 17 17 17 16 14 15 14 14 13 13 12 13 13 13 15 14 14 14 14 13 13 13 15 15
14 17 18 18 17 17 17 16 16 16 17 17 17 16 16 15 14 14 13 14 13 12 12 13 13 14 14 16 16 15 16 16
12 15 18 18 17 17 17 16 16 15 15 16 17 17 17 17 17 14 14 14 14 15 15 15 15 15 15 16 16 17 17 17
11 14 16 17 18 17 17 17 16 16 16 16 16 17 16 16 15 16 15 15 16 16 15 15 15 16 17 16 17 16 15 14
9 12 14 16 17 17 17 17 18 17 17 17 17 15 14 14 14 14 14 15 14 15 14 15 15 13 10 14 13 10 10 11
9 12 14 14 15 15 16 17 18 18 18 17 16 15 15 15 14 14 13 14 13 13 13 12 8 8 13 11 7 7 10 9
13 11 13 12 13 13 15 15 15 17 16 16 15 15 15 14 13 13 12 11 5 11 12 13 13 12 19 19 17 11 11 11
8 7 3 7 11 13 12 13 13 14 14 14 14 13 13 13 8 10 13 12 13 11 13 13 13 11 17 19 20 14 13 13
Wind_Direction
194 198 169 153 164 155 170 185 174 205 231 221 213 205 196 190 171 160 155 153 167 165 120 197 185 169 172 168 171 184 178 181
162 175 170 150 161 164 160 189 170 185 186 242 223 201 195 181 161 155 154 155 171 167 177 172 185 175 170 170 173 191 179 177
172 170 178 170 172 166 158 185 177 166 134 359 326 46 162 149 133 148 148 156 154 189 154 165 187 168 166 173 182 182 176 168
181 183 184 173 177 173 170 176 174 164 132 120 69 50 97 119 126 141 141 151 154 184 193 178 187 169 166 180 182 186 165 185
177 183 187 179 181 178 177 171 170 164 162 135 137 100 104 104 120 118 142 152 174 184 189 185 167 166 179 186 175 191 197 189
184 187 182 176 171 180 171 165 171 168 184 157 142 136 111 123 125 128 138 155 173 188 195 181 171 205 185 175 183 202 191 210
184 179 169 171 164 179 176 162 173 168 168 162 156 154 147 145 155 158 159 162 169 188 192 185 175 188 184 183 181 205 212 220
183 178 174 173 168 176 178 168 171 172 174 165 162 168 161 161 157 173 171 173 177 182 178 184 183 187 193 191 199 219 212 223
188 182 182 176 173 171 180 178 170 176 188 182 177 177 171 168 179 169 178 185 182 175 189 190 200 202 205 210 216 228 227 233
191 184 183 181 179 179 176 174 175 175 188 183 179 187 182 178 181 182 187 187 184 188 196 206 215 216 214 222 237 236 235 230
191 188 181 182 181 177 185 181 176 176 182 189 189 195 184 190 187 195 189 190 193 183 186 195 201 208 217 223 230 231 238 237
193 189 178 184 176 178 184 192 181 181 183 187 195 198 194 197 202 191 196 199 197 197 194 202 213 219 225 229 230 233 236 241
193 188 177 182 181 184 184 191 194 185 184 185 193 199 201 198 205 207 205 206 209 210 217 223 224 226 229 234 237 237 240 248
188 188 184 187 187 189 186 190 196 192 191 190 191 197 202 205 205 207 204 210 213 219 221 223 229 235 237 237 238 243 246 248
192 190 194 192 191 190 191 189 198 194 195 198 198 198 204 207 209 207 209 209 215 222 225 230 232 236 238 241 244 242 245 251
204 199 197 197 195 193 194 189 189 195 197 200 200 199 201 209 210 212 212 216 220 224 228 233 237 241 249 258 253 249 253 254
221 197 202 199 196 197 197 197 189 190 198 199 196 193 199 202 203 207 212 219 222 228 235 239 249 40 344 14 23 30 45 38
249 264 193 201 194 192 193 197 190 188 197 196 195 193 196 199 202 204 207 207 202 50 57 65 58 45 40 58 69 66 66 57
264 266 251 191 181 175 188 186 186 182 190 191 188 190 190 191 177 87 76 71 72 74 66 64 64 50 56 66 71 72 68 62